Time,TemperatureF,DewpointF,PressureIn,WindDirection,WindDirectionDegrees,WindSpeedMPH,WindSpeedGustMPH,Humidity,HourlyPrecipIn,Conditions,Clouds,dailyrainin,SolarRadiationWatts/m^2,SoftwareType,DateUTC
2013-05-22 00:00:00,64.0,26.0,-100.00,NW,304,3.0,12.0,24,0.00,,,-99.99,0.000000,,2013-05-22 07:00:00,
2013-05-22 00:21:00,64.0,26.0,-100.00,NW,304,3.0,12.0,24,0.00,,,-99.99,0.000000,,2013-05-22 07:21:00,
2013-05-22 00:32:00,64.0,26.0,-100.00,NW,304,3.0,12.0,24,0.00,,,-99.99,0.000000,,2013-05-22 07:32:00,
2013-05-22 00:42:00,64.0,26.0,-100.00,NW,304,3.0,12.0,24,0.00,,,-99.99,0.000000,,2013-05-22 07:42:00,
2013-05-22 00:52:00,64.0,26.0,-100.00,NW,304,3.0,12.0,24,0.00,,,-99.99,0.000000,,2013-05-22 07:52:00,
2013-05-22 01:00:00,61.0,29.0,-100.00,WNW,283,7.0,13.0,30,0.00,,,-99.99,0.000000,,2013-05-22 08:00:00,
2013-05-22 01:22:00,61.0,29.0,-100.00,WNW,283,7.0,13.0,30,0.00,,,-99.99,0.000000,,2013-05-22 08:22:00,
2013-05-22 01:32:00,61.0,29.0,-100.00,WNW,283,7.0,13.0,30,0.00,,,-99.99,0.000000,,2013-05-22 08:32:00,
2013-05-22 01:42:00,61.0,29.0,-100.00,WNW,283,7.0,13.0,30,0.00,,,-99.99,0.000000,,2013-05-22 08:42:00,
2013-05-22 01:52:00,61.0,29.0,-100.00,WNW,283,7.0,13.0,30,0.00,,,-99.99,0.000000,,2013-05-22 08:52:00,
2013-05-22 02:00:00,60.0,29.0,-100.00,West,278,5.0,12.0,31,0.00,,,0.00,0.000000,,2013-05-22 09:00:00,
2013-05-22 02:22:00,60.0,29.0,-100.00,West,278,5.0,12.0,31,0.00,,,0.00,0.000000,,2013-05-22 09:22:00,
2013-05-22 02:33:00,60.0,29.0,-100.00,West,278,5.0,12.0,31,0.00,,,0.00,0.000000,,2013-05-22 09:33:00,
2013-05-22 02:42:00,60.0,29.0,-100.00,West,278,5.0,12.0,31,0.00,,,0.00,0.000000,,2013-05-22 09:42:00,
2013-05-22 02:53:00,60.0,29.0,-100.00,West,278,5.0,12.0,31,0.00,,,0.00,0.000000,,2013-05-22 09:53:00,
2013-05-22 03:00:00,60.0,29.0,-100.00,West,281,4.0,9.0,31,0.00,,,-99.99,0.000000,,2013-05-22 10:00:00,
2013-05-22 03:23:00,60.0,29.0,-100.00,West,281,4.0,9.0,31,0.00,,,-99.99,0.000000,,2013-05-22 10:23:00,
2013-05-22 03:33:00,60.0,29.0,-100.00,West,281,4.0,9.0,31,0.00,,,-99.99,0.000000,,2013-05-22 10:33:00,
2013-05-22 03:42:00,60.0,29.0,-100.00,West,281,4.0,9.0,31,0.00,,,-99.99,0.000000,,2013-05-22 10:42:00,
2013-05-22 03:52:00,60.0,29.0,-100.00,West,281,4.0,9.0,31,0.00,,,-99.99,0.000000,,2013-05-22 10:52:00,
2013-05-22 04:00:00,59.0,28.0,-100.00,WSW,247,2.0,9.0,31,0.00,,,0.00,0.000000,,2013-05-22 11:00:00,
2013-05-22 04:22:00,59.0,28.0,-100.00,WSW,247,2.0,9.0,31,0.00,,,0.00,0.000000,,2013-05-22 11:22:00,
2013-05-22 04:32:00,59.0,28.0,-100.00,WSW,247,2.0,9.0,31,0.00,,,0.00,0.000000,,2013-05-22 11:32:00,
2013-05-22 04:42:00,59.0,28.0,-100.00,WSW,247,2.0,9.0,31,0.00,,,0.00,0.000000,,2013-05-22 11:42:00,
2013-05-22 04:52:00,59.0,28.0,-100.00,WSW,247,2.0,9.0,31,0.00,,,0.00,0.000000,,2013-05-22 11:52:00,
2013-05-22 05:00:00,57.0,26.0,-100.00,WNW,294,2.0,11.0,30,0.00,,,0.00,0.000000,,2013-05-22 12:00:00,
2013-05-22 05:22:00,57.0,26.0,-100.00,WNW,294,2.0,11.0,30,0.00,,,0.00,0.000000,,2013-05-22 12:22:00,
2013-05-22 05:32:00,57.0,26.0,-100.00,WNW,294,2.0,11.0,30,0.00,,,0.00,0.000000,,2013-05-22 12:32:00,
2013-05-22 05:42:00,57.0,26.0,-100.00,WNW,294,2.0,11.0,30,0.00,,,0.00,0.000000,,2013-05-22 12:42:00,
2013-05-22 05:52:00,57.0,26.0,-100.00,WNW,294,2.0,11.0,30,0.00,,,0.00,0.000000,,2013-05-22 12:52:00,
2013-05-22 06:00:00,57.0,28.0,-100.00,West,276,8.0,19.0,33,0.00,,,0.00,0.000000,,2013-05-22 13:00:00,
2013-05-22 06:22:00,57.0,28.0,-100.00,West,276,8.0,19.0,33,0.00,,,0.00,0.000000,,2013-05-22 13:22:00,
2013-05-22 06:32:00,57.0,28.0,-100.00,West,276,8.0,19.0,33,0.00,,,0.00,0.000000,,2013-05-22 13:32:00,
2013-05-22 06:42:00,57.0,28.0,-100.00,West,276,8.0,19.0,33,0.00,,,0.00,0.000000,,2013-05-22 13:42:00,
2013-05-22 06:52:00,57.0,28.0,-100.00,West,276,8.0,19.0,33,0.00,,,0.00,0.000000,,2013-05-22 13:52:00,
2013-05-22 07:22:00,55.0,23.0,-100.00,NW,318,4.0,19.0,29,0.00,,,0.00,3.000000,,2013-05-22 14:22:00,
2013-05-22 07:32:00,55.0,23.0,-100.00,NW,318,4.0,19.0,29,0.00,,,0.00,3.000000,,2013-05-22 14:32:00,
2013-05-22 08:00:00,61.0,29.0,-100.00,East,93,5.0,19.0,29,0.00,,,-99.99,116.000000,,2013-05-22 15:00:00,
2013-05-22 08:22:00,61.0,29.0,-100.00,East,93,5.0,19.0,29,0.00,,,-99.99,116.000000,,2013-05-22 15:22:00,
2013-05-22 08:33:00,61.0,29.0,-100.00,East,93,5.0,19.0,29,0.00,,,-99.99,116.000000,,2013-05-22 15:33:00,
2013-05-22 08:43:00,61.0,29.0,-100.00,East,93,5.0,19.0,29,0.00,,,-99.99,116.000000,,2013-05-22 15:43:00,
2013-05-22 08:53:00,61.0,29.0,-100.00,East,93,5.0,19.0,29,0.00,,,-99.99,116.000000,,2013-05-22 15:53:00,
2013-05-22 09:00:00,61.0,30.0,-100.00,East,97,3.0,12.0,31,0.00,,,0.00,397.000000,,2013-05-22 16:00:00,
2013-05-22 09:23:00,61.0,30.0,-100.00,East,97,3.0,12.0,31,0.00,,,0.00,397.000000,,2013-05-22 16:23:00,
2013-05-22 09:33:00,61.0,30.0,-100.00,East,97,3.0,12.0,31,0.00,,,0.00,397.000000,,2013-05-22 16:33:00,
2013-05-22 09:42:00,61.0,30.0,-100.00,East,97,3.0,12.0,31,0.00,,,0.00,397.000000,,2013-05-22 16:42:00,
2013-05-22 09:52:00,61.0,30.0,-100.00,East,97,3.0,12.0,31,0.00,,,0.00,397.000000,,2013-05-22 16:52:00,
2013-05-22 10:00:00,65.0,29.0,-100.00,North,8,7.0,12.0,26,0.00,,,0.00,678.000000,,2013-05-22 17:00:00,
2013-05-22 10:23:00,65.0,29.0,-100.00,North,8,7.0,12.0,26,0.00,,,0.00,678.000000,,2013-05-22 17:23:00,
2013-05-22 10:33:00,65.0,29.0,-100.00,North,8,7.0,12.0,26,0.00,,,0.00,678.000000,,2013-05-22 17:33:00,
2013-05-22 10:42:00,65.0,29.0,-100.00,North,8,7.0,12.0,26,0.00,,,0.00,678.000000,,2013-05-22 17:42:00,
2013-05-22 10:53:00,65.0,29.0,-100.00,North,8,7.0,12.0,26,0.00,,,0.00,678.000000,,2013-05-22 17:53:00,
2013-05-22 11:22:00,59.0,28.0,-100.00,West,275,18.0,31.0,31,0.00,,,0.00,938.000000,,2013-05-22 18:22:00,
2013-05-22 11:34:00,59.0,28.0,-100.00,West,275,18.0,31.0,31,0.00,,,0.00,938.000000,,2013-05-22 18:34:00,
2013-05-22 11:42:00,59.0,28.0,-100.00,West,275,18.0,31.0,31,0.00,,,0.00,938.000000,,2013-05-22 18:42:00,
2013-05-22 11:52:00,59.0,28.0,-100.00,West,275,18.0,31.0,31,0.00,,,0.00,938.000000,,2013-05-22 18:52:00,
2013-05-22 12:22:00,60.0,29.0,-100.00,West,274,21.0,35.0,31,-99.99,,,0.00,1157.000000,,2013-05-22 19:22:00,
2013-05-22 12:32:00,60.0,29.0,-100.00,West,274,21.0,35.0,31,-99.99,,,0.00,1157.000000,,2013-05-22 19:32:00,
2013-05-22 12:42:00,60.0,29.0,-100.00,West,274,21.0,35.0,31,-99.99,,,0.00,1157.000000,,2013-05-22 19:42:00,
2013-05-22 13:00:00,60.0,31.0,-100.00,West,274,24.0,38.0,33,-99.99,,,0.00,1309.000000,,2013-05-22 20:00:00,
2013-05-22 13:22:00,60.0,31.0,-100.00,West,274,24.0,38.0,33,-99.99,,,0.00,1309.000000,,2013-05-22 20:22:00,
2013-05-22 13:32:00,60.0,31.0,-100.00,West,274,24.0,38.0,33,-99.99,,,0.00,1309.000000,,2013-05-22 20:32:00,
2013-05-22 13:52:00,60.0,31.0,-100.00,West,274,24.0,38.0,33,-99.99,,,0.00,1309.000000,,2013-05-22 20:52:00,
2013-05-22 14:00:00,62.0,32.0,-100.00,WNW,285,22.0,37.0,32,-99.99,,,0.00,1372.000000,,2013-05-22 21:00:00,
2013-05-22 14:22:00,62.0,32.0,-100.00,WNW,285,22.0,37.0,32,-99.99,,,0.00,1372.000000,,2013-05-22 21:22:00,
2013-05-22 14:33:00,62.0,32.0,-100.00,WNW,285,22.0,37.0,32,-99.99,,,0.00,1372.000000,,2013-05-22 21:33:00,
2013-05-22 14:42:00,62.0,32.0,-100.00,WNW,285,22.0,37.0,32,-99.99,,,0.00,1372.000000,,2013-05-22 21:42:00,
2013-05-22 14:53:00,62.0,32.0,-100.00,WNW,285,22.0,37.0,32,-99.99,,,0.00,1372.000000,,2013-05-22 21:53:00,
2013-05-22 16:00:00,63.0,29.0,-100.00,West,281,19.0,40.0,28,-99.99,,,0.00,1279.000000,,2013-05-22 23:00:00,
2013-05-22 16:22:00,63.0,29.0,-100.00,West,281,19.0,40.0,28,-99.99,,,0.00,1279.000000,,2013-05-22 23:22:00,
2013-05-22 16:32:00,63.0,29.0,-100.00,West,281,19.0,40.0,28,-99.99,,,0.00,1279.000000,,2013-05-22 23:32:00,
2013-05-22 16:42:00,63.0,29.0,-100.00,West,281,19.0,40.0,28,-99.99,,,0.00,1279.000000,,2013-05-22 23:42:00,
2013-05-22 16:52:00,63.0,29.0,-100.00,West,281,19.0,40.0,28,-99.99,,,0.00,1279.000000,,2013-05-22 23:52:00,
2013-05-22 17:00:00,62.0,29.0,-100.00,WNW,283,15.0,35.0,28,0.00,,,0.00,1111.000000,,2013-05-23 00:00:00,
2013-05-22 17:22:00,62.0,29.0,-100.00,WNW,283,15.0,35.0,28,0.00,,,0.00,1111.000000,,2013-05-23 00:22:00,
2013-05-22 17:32:00,62.0,29.0,-100.00,WNW,283,15.0,35.0,28,0.00,,,0.00,1111.000000,,2013-05-23 00:32:00,
2013-05-22 17:42:00,62.0,29.0,-100.00,WNW,283,15.0,35.0,28,0.00,,,0.00,1111.000000,,2013-05-23 00:42:00,
2013-05-22 17:52:00,62.0,29.0,-100.00,WNW,283,15.0,35.0,28,0.00,,,0.00,1111.000000,,2013-05-23 00:52:00,
2013-05-22 18:00:00,61.0,29.0,-100.00,WNW,282,15.0,32.0,30,-99.99,,,0.00,886.000000,,2013-05-23 01:00:00,
2013-05-22 18:22:00,61.0,29.0,-100.00,WNW,282,15.0,32.0,30,-99.99,,,0.00,886.000000,,2013-05-23 01:22:00,
2013-05-22 18:32:00,61.0,29.0,-100.00,WNW,282,15.0,32.0,30,-99.99,,,0.00,886.000000,,2013-05-23 01:32:00,
2013-05-22 18:52:00,61.0,29.0,-100.00,WNW,282,15.0,32.0,30,-99.99,,,0.00,886.000000,,2013-05-23 01:52:00,
2013-05-22 19:00:00,59.0,31.0,-100.00,West,281,16.0,31.0,35,-99.99,,,0.00,274.000000,,2013-05-23 02:00:00,
2013-05-22 19:22:00,59.0,31.0,-100.00,West,281,16.0,31.0,35,-99.99,,,0.00,274.000000,,2013-05-23 02:22:00,
2013-05-22 19:32:00,59.0,31.0,-100.00,West,281,16.0,31.0,35,-99.99,,,0.00,274.000000,,2013-05-23 02:32:00,
2013-05-22 19:42:00,59.0,31.0,-100.00,West,281,16.0,31.0,35,-99.99,,,0.00,274.000000,,2013-05-23 02:42:00,
2013-05-22 19:51:00,59.0,31.0,-100.00,West,281,16.0,31.0,35,-99.99,,,0.00,274.000000,,2013-05-23 02:51:00,
2013-05-22 20:00:00,55.0,31.0,-100.00,West,273,19.0,30.0,40,0.00,,,0.00,55.000000,,2013-05-23 03:00:00,
2013-05-22 20:22:00,55.0,31.0,-100.00,West,273,19.0,30.0,40,0.00,,,0.00,55.000000,,2013-05-23 03:22:00,
2013-05-22 20:33:00,55.0,31.0,-100.00,West,273,19.0,30.0,40,0.00,,,0.00,55.000000,,2013-05-23 03:33:00,
2013-05-22 20:43:00,55.0,31.0,-100.00,West,273,19.0,30.0,40,0.00,,,0.00,55.000000,,2013-05-23 03:43:00,
2013-05-22 20:53:00,55.0,31.0,-100.00,West,273,19.0,30.0,40,0.00,,,0.00,55.000000,,2013-05-23 03:53:00,
2013-05-22 21:00:00,53.0,30.0,-100.00,West,275,19.0,33.0,41,-99.99,,,-99.99,17.000000,,2013-05-23 04:00:00,
2013-05-22 21:23:00,53.0,30.0,-100.00,West,275,19.0,33.0,41,-99.99,,,-99.99,17.000000,,2013-05-23 04:23:00,
2013-05-22 21:33:00,53.0,30.0,-100.00,West,275,19.0,33.0,41,-99.99,,,-99.99,17.000000,,2013-05-23 04:33:00,
2013-05-22 21:43:00,53.0,30.0,-100.00,West,275,19.0,33.0,41,-99.99,,,-99.99,17.000000,,2013-05-23 04:43:00,
2013-05-22 21:52:00,53.0,30.0,-100.00,West,275,19.0,33.0,41,-99.99,,,-99.99,17.000000,,2013-05-23 04:52:00,
2013-05-22 22:00:00,51.0,26.0,-100.00,West,260,13.0,31.0,38,0.00,,,0.00,0.000000,,2013-05-23 05:00:00,
2013-05-22 22:22:00,51.0,26.0,-100.00,West,260,13.0,31.0,38,0.00,,,0.00,0.000000,,2013-05-23 05:22:00,
2013-05-22 22:32:00,51.0,26.0,-100.00,West,260,13.0,31.0,38,0.00,,,0.00,0.000000,,2013-05-23 05:32:00,
2013-05-22 22:43:00,51.0,26.0,-100.00,West,260,13.0,31.0,38,0.00,,,0.00,0.000000,,2013-05-23 05:43:00,
2013-05-22 22:52:00,51.0,26.0,-100.00,West,260,13.0,31.0,38,0.00,,,0.00,0.000000,,2013-05-23 05:52:00,
2013-05-22 23:00:00,51.0,23.0,-100.00,SE,137,6.0,25.0,33,-99.99,,,0.00,0.000000,,2013-05-23 06:00:00,
2013-05-22 23:22:00,51.0,23.0,-100.00,SE,137,6.0,25.0,33,-99.99,,,0.00,0.000000,,2013-05-23 06:22:00,
2013-05-22 23:32:00,51.0,23.0,-100.00,SE,137,6.0,25.0,33,-99.99,,,0.00,0.000000,,2013-05-23 06:32:00,
2013-05-22 23:42:00,51.0,23.0,-100.00,SE,137,6.0,25.0,33,-99.99,,,0.00,0.000000,,2013-05-23 06:42:00,
2013-05-22 23:52:00,51.0,23.0,-100.00,SE,137,6.0,25.0,33,-99.99,,,0.00,0.000000,,2013-05-23 06:52:00,